NUEVA SECCION
FREE ACCESS
FREE DOWNLOAD!

 

 

Noticias

..:: D T F o r u M ::.. - Comunidad Técnica -

Bienvenido(a), Visitante. Por favor, ingresa o regístrate. ¿Perdiste tu email de activación?

marzo 01, 2021, 04:02:43 am

Ingresar con nombre de usuario, contraseña y duración de la sesión

AllDataSheets

Buscar Datasheet

CuentaDigital

Mucha información de inverters para lamparas CCFL

viguerbo · 971

0 Usuarios y 1 Visitante están viendo este tema.

Desconectado viguerbo

  • MODERADOR GLOBAL
  • *
    • Mensajes: 14148
    • ACTIVIDAD:
      100%
    • DT$ 20896
    • Sexo: Masculino
on: febrero 14, 2015, 17:15:27 pm
Mucha información de inverters para lámparas CCFL.

Impresionante documentación.
   
- LCD Inverter Pack - .pdf   5.0 MB   11/5/10 14:40:58
8D2826.pdf   90.8 kB   20/11/06 11:39:06
Acer AL532 LCD.pdf   270 kB   10/2/05 1:04:48
ALPS Inverter UHP061104 for NEC LCD1830.pdf   163 kB   25/5/09 10:45:24
AND8293D.pdf   1.2 MB   1/1/10 16:58:54
AOC 715l.pdf   443 kB   20/11/06 11:38:56
AOC CLAA150X INVERTER.pdf   271 kB   19/5/10 20:59:04
AOC TL1451.pdf   107 kB   9/6/09 22:38:36
aqv214.pdf   41.0 kB   17/6/08 14:59:34
BA9741 - AMBIT Philips 170B1A.jpg   806 kB   18/4/10 10:45:24
BA9741.pdf   843 kB   15/6/08 18:55:40
BACKLIGHT CONNECTOR DIAGRAM.JPG   36.0 kB   18/4/10 10:45:00
BD9883FV_AF.pdf   256 kB   25/11/08 0:13:08
Belinea 101705.pdf   44.3 kB   20/11/06 11:39:02
BI3101A.pdf   41.3 kB   15/6/08 18:55:44
BIT3102A.pdf   70.0 kB   25/11/08 1:02:46
BIT3105 - Inverter Shematic.pdf   14.3 kB   2/8/09 9:36:26
BIT3105=.pdf   200 kB   25/11/08 0:18:10
BIT3105P.pdf   72.1 kB   15/6/08 18:56:12
BIT3107.gif   17.6 kB   16/8/07 22:47:36
BIT3193 Protel Inverter Schematic.pdf   26.4 kB   18/4/10 10:45:28
BIT3193--.pdf   914 kB   25/11/08 0:53:30
BIT3193-.pdf   271 kB   25/11/08 0:43:36
BIT3193.gif   27.0 kB   24/11/08 23:59:54
BL1002002-17_IN-00-059R1.1_Ver4.0_31.08.2005.pdf   259 kB   17/5/09 7:54:12
BL1502044-06_IN-00-067_Ver1.0_08.05.2006.pdf   227 kB   17/5/09 7:56:36
BN44-00025ACB-ML15 Inverter.pdf   169 kB   17/5/09 19:25:56
BN44-00038ACB-ML17 Inverter.pdf   238 kB   17/5/09 19:25:56
BN44-00041ACB-GG17 Inverter.pdf   178 kB   17/5/09 19:25:54
BN44-00044ACB-PC21 inverter.pdf   251 kB   17/5/09 19:26:02
BN44-00050ACB-RB15 inverter.pdf   416 kB   17/5/09 19:26:04
BN44-00056B-GG15 Inverter.pdf   140 kB   17/5/09 19:25:54
BN44-00066ACB-Mo15 inverter.pdf   470 kB   17/5/09 19:26:00
BN44-00070ACB-Mo17 inverter.pdf   76.5 kB   17/5/09 19:26:00
BN44-00082B BIT3102 BE4616.pdf   430 kB   24/4/10 20:35:48
BN44-00115C.pdf   374 kB   6/7/10 19:32:08
BN44-00124D.pdf   973 kB   28/6/10 16:52:30
BN44-00124E.pdf   183 kB   4/6/10 22:37:02
BN44-00134A.pdf   363 kB   6/7/10 19:32:04
BN44-00147A.pdf   2.2 MB   6/7/10 19:31:58
BN44-00152B.pdf   303 kB   6/7/10 19:31:52
BN44-00155A.pdf   69.5 kB   6/7/10 19:31:50
BN44-00157A.pdf   5.6 MB   6/7/10 19:31:36
BN44-00159A.pdf   1.6 MB   6/7/10 19:31:28
BN44-00161A.pdf   749 kB   6/7/10 19:31:20
BN44-00162A.pdf   748 kB   6/7/10 19:31:16
BN44-00165A.pdf   780 kB   6/7/10 19:31:10
BN44-00166C.pdf   532 kB   6/7/10 19:31:00
BN44-00167A.pdf   640 kB   6/7/10 19:30:56
BN44-00167B.pdf   651 kB   6/7/10 19:30:50
BN44-00168B.pdf   378 kB   6/7/10 19:30:46
BN44-00183A.pdf   856 kB   6/7/10 19:30:42
BN44-00191A.pdf   6.8 MB   6/7/10 19:22:48
BN44-00191B.pdf   309 kB   6/7/10 19:22:44
BN44-00192B.pdf   84.1 kB   6/7/10 19:22:42
BN44-00193A.pdf   252 kB   6/7/10 19:22:36
BN44-00194A.pdf   733 kB   6/7/10 19:22:30
BN44-00197A.pdf   7.0 MB   6/7/10 19:22:14
BN44-00197B.pdf   7.1 MB   6/7/10 19:21:52
BN44-00198A.pdf   240 kB   6/7/10 19:21:48
BN44-00199A.pdf   1.5 MB   6/7/10 19:21:44
BN44-00200A.pdf   1.6 MB   6/7/10 19:21:34
BN44-00201A.pdf   664 kB   6/7/10 19:21:28
BN44-00202A.pdf   1.1 MB   6/7/10 19:21:22
BN44-00203A.pdf   663 kB   6/7/10 19:17:34
BN44-00204A.pdf   1.9 MB   6/7/10 19:17:26
BN44-00205A.pdf   2.0 MB   6/7/10 19:17:18
BN44-00206A.pdf   488 kB   6/7/10 19:17:14
BN44-00207A.pdf   488 kB   6/7/10 19:17:08
BN44-00208A.pdf   236 kB   6/7/10 19:17:06
BN44-00209A.pdf   272 kB   6/7/10 19:17:04
BN44-00213A.pdf   639 kB   6/7/10 19:16:58
BN44-00214A.pdf   2.4 MB   6/7/10 19:16:50
BN44-00216A.pdf   238 kB   6/7/10 19:16:48
BN44-00232A.pdf   7.5 MB   6/7/10 19:13:44
BN44-00237A.pdf   570 kB   6/7/10 19:13:38
BN44-00259A.pdf   11.2 MB   6/7/10 19:13:18
BN44-00260A.pdf   134 kB   6/7/10 19:13:16
BN44-00261A.pdf   170 kB   6/7/10 19:13:14
BN44-00261B.pdf   152 kB   6/7/10 19:13:12
BN44-00262A.pdf   153 kB   6/7/10 19:13:08
BN44-00264A.pdf   8.5 MB   6/7/10 19:12:54
BN44-00264C.pdf   1.4 MB   6/7/10 19:12:50
BN44-00273A.pdf   206 kB   6/7/10 19:12:48
BN44-00273B.pdf   187 kB   6/7/10 19:12:46
BN44-00273D.pdf   184 kB   6/7/10 19:12:42
BN44-00274A.pdf   207 kB   6/7/10 19:12:38
BN44-00274B.pdf   187 kB   6/7/10 19:12:36
BN44-00277A.pdf   731 kB   6/7/10 19:12:30
BN44-00289A.pdf   3.5 MB   6/7/10 19:12:22
BN44-00289B.pdf   156 kB   7/7/10 19:25:10
BN44-00291A.pdf   125 kB   6/7/10 19:12:16
BN44-00329A.pdf   404 kB   6/7/10 19:46:30
BN44-00329B.pdf   208 kB   6/7/10 19:46:26
BN44-00330B.pdf   206 kB   6/7/10 19:46:24
BN44-00338A.pdf   606 kB   17/4/10 9:17:54
BN44-00338B.pdf   9.2 MB   17/4/10 9:20:04
BN44-00339A.pdf   638 kB   17/4/10 9:42:42
BN44-00339B.pdf   3.1 MB   17/4/10 9:46:02
BN44-00340B.pdf   226 kB   17/4/10 10:00:18
BN44-00341B.pdf   602 kB   17/4/10 10:04:36
BN44-00350A.pdf   147 kB   17/4/10 10:12:34
BN44-00351A.pdf   147 kB   9/4/10 17:18:00
BN44-00351B.pdf   180 kB   17/4/10 10:14:28
BN44-00352A.pdf   145 kB   9/4/10 17:19:14
BN44-00353A.pdf   145 kB   9/4/10 17:20:34
BN44-00354A BN44-00355A.pdf.pdf   145 kB   9/4/10 17:21:36
BN44-00356A.pdf   142 kB   9/4/10 17:23:54
BN44-00356B BN44-00357B.pdf.pdf   197 kB   9/4/10 17:24:56
BN44-00357A.pdf   175 kB   9/4/10 17:26:00
BN44-00358B.pdf   345 kB   9/4/10 17:29:48
BN44-00359A.pdf   191 kB   9/4/10 17:31:02
BN44-00368A.pdf   833 kB   17/4/10 10:17:12
BN44-00368B.pdf   921 kB   17/4/10 10:19:00
BN44-00369A.pdf   634 kB   17/4/10 10:23:18
BN44-00369B.pdf   2.9 MB   17/4/10 10:24:34
BN71BB.pdf   388 kB   2/8/09 10:10:10
BN96 03058A Rev1.3.pdf   387 kB   22/12/09 21:12:24
BN96 03775A Rev1.2.pdf   75.5 kB   22/12/09 21:09:00
bn96-01850e inverter.PDF   79.8 kB   11/4/10 0:33:06
Calha com 2 lampadas.JPG   8.1 kB   18/4/10 10:44:56
CCFL - Precautions and Procedures for Accurate Voltage Measurements.doc   27.5 kB   18/4/10 10:44:56
CCFL Lamp wire.jpg   85.5 kB   18/4/10 10:44:56
CCFL Lamp.jpg   30.5 kB   18/4/10 10:44:54
CCFL leak current Measurement at the LCD Module.pdf   37.8 kB   18/4/10 10:44:52
CCFL Measurement.pdf   79.9 kB   18/4/10 10:44:52
CCFL SANKEN.JPG   25.5 kB   18/4/10 10:44:48
CCFL Transformer Turns Ratio Selection (AN3375).pdf   37.8 kB   18/4/10 10:45:18
CCFLINVERTER.pdf   903 kB   16/4/10 13:05:54
CHINA- LCD-Power+Inverter OZ9938+TOP245.pdf   377 kB   1/6/10 14:37:42
classic_inverter_boards_for_lcd_160.pdf   200 kB   2/8/09 9:36:22
Coiltronics CCFL Transformer Application Note.pdf   563 kB   18/4/10 10:45:18
confer.pdf   62.5 kB   19/1/08 9:38:20
COOPER Bussmann CCFL TRANSFORMERS PM-4303.pdf   883 kB   18/4/10 10:45:12
CXA-0217_MP-02-010R1.1_04.10.2002_preliminary.pdf   242 kB   17/5/09 7:56:44
CXA-0317_IN-00-057_09.12.2002.pdf   198 kB   17/5/09 7:56:50
CXA-0496(CTR-2352-A)_IN-00-086_10.03.2008.pdf   592 kB   17/5/09 7:57:06
CXA-L05XX-NJL_ZU-01-084_20080410.pdf   637 kB   17/5/09 7:57:14
CXA0256.pdf   140 kB   19/1/08 10:09:20
DADON - CCFL Driving Inverter Transformers.pdf   928 kB   18/4/10 10:45:12
Darfon Power BD Introduction.pdf   1.1 MB   18/4/10 10:45:14
DC AC Inverter Unit for Liquid Crystal Display (LCD) Panel.pdf   168 kB   18/4/10 10:45:30
Delta DAC-12B188A-PK Vestel_17MB11.pdf   58.6 kB   2/8/09 9:36:14
DICAS DE REPAROS EM INVERTER.doc   30.5 kB   18/4/10 10:45:34
FAN7310-.pdf   27.0 kB   25/11/08 1:49:48
FAN7310.pdf   178 kB   25/11/08 1:52:22
FAN7314.pdf   496 kB   17/11/08 2:00:08
FAN7601 LIEN CHANG AI-0066 L1720P L1750S Inverter LCD.pdf   50.4 kB   18/2/10 15:38:02
FAN7601 LIEN CHANG AI-0066 L1720P L1750S.gif   47.4 kB   18/4/10 10:45:38
FDM0565R (DM0565R) & FAN7310 - Circuit Description IPBOARD - 540N, 540B, 740N, 740B, 740T, 940B, 940T, 940N.pdf   800 kB   18/4/10 10:45:44
FP1451.pdf   271 kB   15/6/08 18:56:20
FSDM0565R (DM0565R) & BIT3105 FLF1742-20A IP-BOARD.pdf   706 kB   18/4/10 10:49:22
FSDM0565R Power supply.pdf   599 kB   2/8/09 9:36:02
GH025A_M__HD-10-034R1.1_Rev1_15.04.2005.pdf   484 kB   17/5/09 7:57:56
GH025A(A1)_IN-00-100_23.06.07.pdf   1.0 MB   17/5/09 7:57:54
GH027E_IN-00-101_080626.pdf   829 kB   17/5/09 7:58:02
GH053A(A2)_SA-01-210R1.1_Rev5.0_18.08.2005.pdf   331 kB   17/5/09 7:58:06
GH163A(A2)_IN-00-070_18.02.2008.pdf   1.3 MB   17/5/09 7:58:22
GH184A_IN-00-077_Rev.1.0_06.03.2007.pdf   517 kB   17/5/09 7:58:24
GH214A(P1)_IN-00-091_20080128.pdf   1.1 MB   17/5/09 7:58:38
GH317A_IN-00-105_Rev1.0_03.11.2008.pdf   315 kB   17/5/09 7:59:02
GH317A(P1)_IN-00-106_Rev1.0_03.11.2008.pdf   344 kB   17/5/09 7:58:40
GH317A(P2)_IN-00-108_26.02.2009.pdf   1.1 MB   17/5/09 7:59:02
GMN40KS-inverter.pdf   126 kB   6/2/07 20:53:34
HD-10-005_HD-10-005R2.0_20.01.2009.pdf   766 kB   17/5/09 8:00:00
ICE2AS NCP1200 BIT3105 - FLF1521 LCD Power supply.pdf   119 kB   18/4/10 10:45:52
ICE2AS NCP1200D60 OZ960 - Aztec 1724 LCD Power Supply.pdf   119 kB   18/4/10 10:45:56
IIYAMA MA203D (Vision Master Pro 513).pdf   1018 kB   17/6/08 15:00:08
INVERTEC_V300_inverteres-heggeaszto.pdf   2.7 MB   30/3/10 11:10:36
INVERTER 17IPS06-2 - 17IPS02-1.pdf   167 kB   23/3/10 10:25:08
INVERTER 2500 TOP DC.pdf   4.9 MB   8/12/09 21:32:12
Inverter DELTA.pdf   1.0 MB   20/2/10 12:15:12
Inverter for LG schematic_with_oz960.pdf   213 kB   5/5/10 9:28:10
Inverter Info A... 9164470.pdf   2.4 MB   15/11/09 19:53:34
INVERTER LM 722.pdf   334 kB   2/11/09 11:52:22
inverter OZ9926.pdf   93.2 kB   17/5/10 16:20:30
inverter_Hitachi_L100_Manual.pdf   4.9 MB   7/3/10 21:45:00
inverter_Hitachi_SJ100_Manual.pdf   4.3 MB   7/3/10 21:44:46
inverter_sony-xxxx_tft.pdf   574 kB   5/5/10 9:28:16
IT_0251LC2700_data.JPG   15.9 kB   18/4/10 10:45:08
LA15S51B_ch_SP15SO-SMPS,inverter.pdf   110 kB   6/2/07 20:50:20
LCD invertor.pdf   9.0 MB   3/2/09 13:50:50
LCD_monitor Philips_150P2E-Hudson - inverter.pdf   2.2 MB   6/2/07 21:47:00
LCD-inverter-3 LG Philips.pdf   152 kB   7/12/09 8:31:40
LCD-inverter-4 LG Philips.pdf   251 kB   7/12/09 8:31:42
LCD-inverter-5 LG Philips.pdf   171 kB   7/12/09 8:31:46
LD7575A & OZ9938GN - 715T2783-1-5.pdf   657 kB   18/4/10 10:58:36
LE23_26_32_40R51B inverter.pdf   127 kB   31/5/08 17:55:28
LE23_26_32_40R51B power.pdf   81.0 kB   31/5/08 17:55:24
LE40R51B RExxEO-inverter.pdf   125 kB   30/7/08 18:57:16
LG Power Service.JPG   46.4 kB   18/4/10 10:47:16
lm722.jpg   100 kB   18/4/10 10:47:22
LX1686.pdf   1.8 MB   15/6/08 18:59:00
LX1686CPW - Philips 180P1L (p9_1).jpg   862 kB   18/4/10 10:47:24
LX1686CPW - Philips 180P1L (p9_2).jpg   961 kB   18/4/10 10:47:28
LX1691.pdf   48.5 kB   15/6/08 18:58:20
M190A1-L01.pdf   1017 kB   30/4/08 11:29:34
MP1011EMA.pdf   114 kB   15/6/08 18:58:32
MP1015.pdf   628 kB   15/6/08 18:59:06
MP1018.pdf   214 kB   15/6/08 18:59:08
MP1024.pdf   145 kB   15/6/08 19:02:00
MP1025.pdf   54.0 kB   15/6/08 19:01:56
MP1026.pdf   60.7 kB   15/6/08 19:02:12
MP1038.pdf   81.2 kB   15/6/08 19:02:06
NCP1200 & BIT3105 - Frontek LCD power supply.pdf   89.1 kB   18/4/10 10:47:28
NCP1200 & TL1451 IP-BOARD BenQ Q7T4 - FP71G.pdf   567 kB   18/4/10 10:47:36
NCP1200D60 OZ960GN PW1504FG(A) - LG L1710S LB700G - IPBOARD.pdf   384 kB   18/4/10 10:47:36
NCP1203 (203D6).jpg   29.0 kB   18/4/10 10:47:40
NCP1203D (203D6) - BA9741F IPBOARD TPV PWPC1942AUA11P (715G1492-1).pdf   62.4 kB   18/4/10 10:47:40
NCP1207 LT1507 LCD_TV Power.pdf   667 kB   18/4/10 10:47:46
NEC ALPS Inverter LCD1830.pdf   162 kB   2/8/09 9:35:40
NEC multisync lcd1550me.pdf   38.4 kB   20/11/06 11:39:16
ON-BRIGH CCFL INVERTER MANUAL - OB-3318.pdf   4.1 MB   19/10/09 10:21:36
OZ960 lamp inverter LCD.pdf   384 kB   20/11/06 11:39:24
OZ960 sheet.pdf   107 kB   17/6/08 14:59:18
oz960_931.jpg   411 kB   17/6/08 14:59:18
OZ960.pdf   1.1 MB   12/1/09 0:27:04
OZ9601S.pdf   54.0 kB   15/6/08 19:16:06
OZ960G - TDK LG Philips.JPG   450 kB   18/4/10 10:47:46
OZ960GN PWI1504FG(A) - L1715S LB700k - INVERTER.pdf   67.8 kB   18/4/10 10:47:52
oz962.pdf   54.2 kB   17/6/08 14:59:10
OZ962G.pdf   74.0 kB   15/6/08 19:03:10
OZ964.pdf   57.5 kB   15/6/08 19:03:44
OZ965 sheet.pdf   68.7 kB   17/6/08 14:59:04
OZ965.pdf   327 kB   15/6/08 19:04:34
OZ967.pdf   365 kB   15/6/08 19:04:46
OZ968.pdf   117 kB   15/6/08 19:04:52
OZ968G.pdf   50.0 kB   17/6/08 14:59:00
OZ96X.pdf   148 kB   7/12/06 13:12:58
OZ970.pdf   514 kB   15/6/08 19:05:40
OZ9936CN Electrical diagram inverter (Hanns-G HW173A).jpg   773 kB   18/4/10 10:47:54
OZ9938 inverter.pdf   1.3 MB   16/1/10 7:45:34
OZ9RR.pdf   211 kB   15/6/08 19:03:04
p1_p2.jpg   866 kB   14/4/07 20:25:28
p3_p4.jpg   860 kB   14/4/07 20:25:44
p5_p6.jpg   895 kB   14/4/07 20:25:56
p7.jpg   665 kB   14/4/07 20:26:12
PC 3H7.pdf   67.2 kB   17/6/08 14:59:24
PC814x.pdf   74.3 kB   17/6/08 14:59:30
Philips BA9741 - AMBIT 170B1A inverter.jpg   847 kB   2/8/09 9:36:38
PI-170DTLA PI-190DTLB 200-000-170TLBMH MIRAGE ELECTRONICS.pdf   790 kB   18/4/10 10:47:56
PK070008J00.pdf   5.4 MB   14/5/08 11:30:00
Power Service V2.JPG   49.5 kB   18/4/10 10:47:56
PS-0308-021_ZU-01-097R1.1_Rev.1.1_21.09.2005.pdf   225 kB   17/5/09 8:00:12
PS-0320-132_IN-00-015R1.1_V1.2_09.09.2005.pdf   196 kB   17/5/09 8:00:18
PS-DA0201-123_IN-00-075_V1.1_05.01.2007_DI.pdf   258 kB   17/5/09 8:00:26
PS-DA0253-01_IN-00-103_V1.2_21.09.2006.pdf   357 kB   17/5/09 8:00:34
PS-DA0263-02_V1-2-1_IN-00-094.pdf   1.1 MB   17/5/09 8:00:56
PS-DA0414-10S_IN-00-071_Rev1.2_14.07.2006.pdf   380 kB   17/5/09 8:00:56
PS-DA0414-10S_IN-00-071_Rev1.4.1_20.10.2006.pdf   389 kB   17/5/09 8:01:04
PS-DA0414-192(S)_IN-00-084_Rev1.0_29.10.2007.pdf   1.3 MB   17/5/09 8:01:20
PS-DA0414-20S_IN-00-072_Rev1.2_14.07.2006.pdf   390 kB   17/5/09 8:01:20
PS-M06D12S5-NJ4L-048_IN-00-008R1.1_Rev1.1_10.03.2005.pdf   267 kB   17/5/09 8:01:22
Sampo LCD Inverter power L0037 DIV0037.pdf   82.9 kB   19/6/08 11:23:32
Sanken CCFL Solution.pdf   694 kB   18/4/10 10:44:50
SANYO INVERTER POWER INTEGRATED CIRCUITS.pdf   2.3 MB   14/1/10 18:24:58
SG6841 & TL1451 IP-BOARD 715L1103-D.pdf   808 kB   18/4/10 10:48:00
SHARP BD9766FV.pdf   799 kB   25/12/09 21:00:34
SIP-400B.pdf   6.9 MB   27/3/10 12:16:46
Soldagem terminal quente.JPG   8.4 kB   18/4/10 10:44:46
Sony SDM-N50R chassis ST5.pdf   45.7 kB   10/2/05 0:55:10
Sony SDM-X52.pdf   56.9 kB   10/2/05 0:52:08
Sony SDM-X82_.pdf   54.7 kB   10/2/05 0:50:20
SPI_8TC00332.doc   92.5 kB   18/4/10 10:45:06
SPI_8TT00006_data.JPG   25.4 kB   18/4/10 10:45:04
TEA1530AT & OZT1060GN 715G1847-1-2 (Adelfia TGL2010A).pdf   1.2 MB   18/4/10 10:48:04
TEA1530AT & TL494 715G2538-1-ACE (ASUS VW224U&VW224S).pdf   695 kB   18/4/10 10:48:02
Thumbs.db   2.1 MB   14/2/15 21:07:48
TIANJIN EE19-D CCFL Driving Inverter Transformer.pdf   36.9 kB   18/4/10 10:45:04
TL1451_01.pdf   111 kB   20/9/08 22:54:20
TL1451.pdf   99.0 kB   15/6/08 19:06:14
TL1451AC - Dell E172FPB INVERTER.jpg   152 kB   18/4/10 10:48:06
TL1451AC - SAMPO DIVTL0144-D21.gif   22.6 kB   18/4/10 10:48:04
TL1451ACNSR SAMPO DIVTL044-D1.JPG   363 kB   18/4/10 10:48:14
TL1451ACNSR- SAMPO.JPG   379 kB   18/4/10 10:48:14
TL494 Inverter CCFL LCD schematic.JPG   193 kB   18/4/10 10:48:14
TL494.png   176 kB   17/11/08 2:01:28
TL5001.pdf   194 kB   15/6/08 19:16:36
TL5001CD - SAMPO DIVTL0048-D21.JPG   351 kB   18/4/10 10:48:18
TL5001CD - Sampo L0048 - 79AL15.pdf   63.2 kB   18/4/10 10:48:18
TLF5001CD - PLCD2125207A.gif   26.5 kB   18/4/10 10:48:18
TLP5001CD - SAMPO EMAX PLCD2125207A.JPG   461 kB   18/4/10 10:48:24
TM-0917 Schematic.JPG   30.6 kB   18/4/10 10:45:00
TM-1017 Schematic.JPG   30.9 kB   18/4/10 10:45:00
TND321D.pdf   788 kB   1/1/10 17:49:12
TOP244F BIT3105 LG L1515SL L1516SL chassis CL-32.pdf   52.1 kB   18/4/10 10:48:22
TOP245Y OZ9938GN L1718S-060405.pdf   319 kB   18/4/10 10:48:24
TOP246F - FPD1520, LG chassis CL-32 Tft LCD power supply.pdf   68.8 kB   18/4/10 10:57:14
UC3842 - Dell E172FPB PWR.jpg   147 kB   18/4/10 10:48:30
UC3872.pdf   88.9 kB   15/6/08 19:16:40
UCC3972_3973.pdf   245 kB   15/6/08 19:17:12
uPC393.pdf   44.2 kB   15/6/08 19:21:52
uPC393G2 - Sony SDM50.JPG   677 kB   18/4/10 10:48:38
XXXX_1.pdf   57.5 kB   7/6/08 23:04:52
informative
0
agree
0
like
0
dislike
0
Sin reactiones
Sin reactiones
Sin reactiones
Sin reactiones



Tags: (Palabras Clave)